Regional Weather Roundup
Issued by NWS Northern Indiana

Home | Current Version | Previous Version | Graphics & Text | Print | Product List | Glossary On
Versions: 1 2 3 4 5 6 7 8 9 10 11 12 13 14 15 16 17 18 19 20 21 22 23 24 25 26 27 28 29 30 31 32 33 34 35 36 37 38 39 40 41 42 43 44 45 46 47 48 49 50
000
ASUS43 KIWX 230210
RWRIWX

KIWX WEATHER ROUNDUP
NATIONAL WEATHER SERVICE NORTHERN INDIANA
900 PM EST SAT NOV 22 2014

NOTE: "FAIR" INDICATES FEW OR NO CLOUDS BELOW 12,000 FEET WITH NO
SIGNIFICANT WEATHER AND/OR OBSTRUCTIONS TO VISIBILITY.

* THESE STATIONS ARE NOT UNDER NWS QUALITY CONTROL. THEY ALSO MAY NOT
  REPORT WEATHER SUCH AS PRECIPITATION OR FOG.

INZ001>027-230300-
NORTHERN INDIANA

CITY           SKY/WX    TMP DP  RH WIND       PRES   REMARKS
VALPARAISO     CLOUDY    50  44  80 S12       29.93S
MICHIGAN CITY* CLOUDY    50  43  76 S15       29.91F
LAPORTE*       CLOUDY    50  47  88 S5        29.93S
KNOX*          CLOUDY    49  44  80 SW10      29.93S
SOUTH BEND     CLOUDY    49  45  86 SW12      29.93S
GOSHEN         CLOUDY    50  44  80 S15       29.94S
MONTICELLO*    CLOUDY    52  44  74 S9        29.95S
LOGANSPORT*    CLOUDY    46  41  81 S9        29.97F
ROCHESTER*     CLOUDY    52  43  71 S9        29.95F
WARSAW*        CLOUDY    50  43  76 S9G16     29.95F
ANGOLA*        CLOUDY    48  37  66 SW9       29.94F
FORT WAYNE     CLOUDY    50  41  71 S14       29.99S
HUNTINGTON*    CLOUDY    52  42  68 SW8       29.98S
PERU/GRISSOM   CLOUDY    52  47  83 S14       29.96F
MARION*        CLOUDY    50  39  66 S12       30.00S

$$
INZ028>050-230300-
CENTRAL INDIANA

CITY           SKY/WX    TMP DP  RH WIND       PRES   REMARKS
LAFAYETTE      CLOUDY    53  42  66 S6        29.96F
KOKOMO*        CLOUDY    52  41  66 S9        29.98F
MUNCIE*        CLOUDY    53  40  61 S14       30.01S
INDIANAPOLIS   LGT RAIN  53  40  61 S10       30.00S

$$
MIZ043>046-050>051-056>058-064>065-071>073-077>080-230300-
SOUTHWEST LOWER MICHIGAN

CITY           SKY/WX    TMP DP  RH WIND       PRES   REMARKS
BATTLE CREEK   CLOUDY    48  44  86 SW16      29.91S
BENTON HARBOR  CLOUDY    50  46  86 S10       29.89S
COLDWATER*     CLOUDY    50  46  85 SW13      29.93S
HILLSDALE*     CLOUDY    49  46  88 SW13      29.93F
HOLLAND        CLOUDY    52  45  77 SW24G31   29.87S
GRAND RAPIDS   CLOUDY    43  42  97 SW13      29.88R FOG
KALAMAZOO      CLOUDY    44  42  93 S10       29.91S FOG
STURGIS*       CLOUDY    46  45  93 S12       29.92F
THREE RIVERS*  CLOUDY    48  45  89 SW8       29.92S

$$
OHZ001>008-015>018-024>025-230300-
NORTHWEST OHIO

CITY           SKY/WX    TMP DP  RH WIND       PRES   REMARKS
WAUSEON*       CLOUDY    50  43  76 SW10      29.96F
DEFIANCE       CLOUDY    50  42  74 SW10      29.98S
FINDLAY        CLOUDY    50  40  68 S15       29.99S
TOLEDO EXPRESS LGT RAIN  49  41  74 SW7       29.97S
TOLEDO METCALF CLOUDY    49  40  71 SW9       29.99S
LIMA           MOCLDY    52  39  61 S15       30.00S

$$
AND FOR LAKE MICHIGAN COASTAL AND OPEN LAKE BUOY OBSERVATIONS

STATION/POSITION TEMP    WIND        PRES    VSBY  WAVE
                 AIR SEA DIR/SP/G                  HT/PER
                 (F)     (DEG/KT/KT) (MB)    (MI)  (FT/S)
CALUMET HARBOR    52     190/ 12/ 17 1010.5F
MICHIGAN CITY     52     170/ 18/ 22   N/A
SAINT JOSEPH      52     180/ 17/ 24 1012.5F
SOUTH LAKE BUOY   46 42  190/ 16/ 17 1010.9F         3/ 5

$$
&&


USA.gov is the U.S. government's official web portal to all federal, state and local government web resources and services.